Home   Weather   60°07'N, 18°38'E   Past weeks
Flag for Sweden

Past Weather in 60°07'N, 18°38'E, Sweden — Yesterday and Last 2 Weeks

Now
39 °F

Passing clouds.


Feels Like: 30 °F
Forecast: 43 / 38 °F
Wind: 17 mph from Southwest

Location: Stockholm / Arlanda

Current Time: Feb 17, 2020 at 7:26:58 am

Latest Report: Feb 17, 2020 at 6:50 am


Visibility: N/A

Pressure: 29.00 "Hg

Humidity: 75%

Dew Point: 32 °F

Location of 60°07'N, 18°38'ELocation

Past Weather in 60°07'N, 18°38'E — Graph

°F

60°07'N, 18°38'E Temperature Yesterday

Maximum temperature yesterday: 50 °F (at 7:20 pm)
Minimum temperature yesterday: 39 °F (at 12:20 am)
Average temperature yesterday: 44 °F

High & Low Weather Summary for the Past Weeks

 TemperatureHumidityPressure
High50 °F (Feb 16, 7:20 pm)100% (Feb 3, 8:50 pm)30.36 "Hg (Feb 3, 8:50 pm)
Low18 °F (Feb 3, 11:50 pm)53% (Feb 16, 11:20 pm)28.26 "Hg (Feb 10, 9:50 am)
Average34 °F84%29.46 "Hg
* Reported Feb 2 6:20 am — Feb 17 6:20 am, 60°07'N, 18°38'E. Weather by CustomWeather, © 2020

Note: Actual official high and low records may vary slightly from our data, if they occured in-between our weather recording intervals... More about our weather records

60°07'N, 18°38'E Weather History for the Previous 24 Hours

Scroll right to see more
 ConditionsComfort  
Time TempWeatherWind HumidityBarometerVisibility
6:20 am
Mon, Feb 17
39 °FPassing clouds.17 mph75%29.00 "HgN/A
5:50 am39 °FPassing clouds.20 mph75%29.00 "HgN/A
5:20 am39 °FPassing clouds.21 mph81%29.00 "HgN/A
4:50 am39 °FPassing clouds.22 mph75%29.00 "HgN/A
4:20 am39 °FPassing clouds.23 mph75%28.97 "HgN/A
3:50 am39 °FPassing clouds.20 mph81%28.97 "HgN/A
3:20 am41 °FPassing clouds.20 mph76%28.97 "HgN/A
2:50 am39 °FPassing clouds.17 mph81%28.97 "HgN/A
2:20 am39 °FPassing clouds.16 mph81%28.97 "HgN/A
1:50 am39 °FPassing clouds.14 mph81%28.97 "HgN/A
1:20 am41 °FPassing clouds.14 mph70%28.97 "HgN/A
12:50 am41 °FPassing clouds.15 mph66%28.97 "HgN/A
12:20 am43 °FPartly cloudy.20 mph61%29.00 "HgN/A
11:50 pm
Sun, Feb 16
43 °FPassing clouds.16 mph57%29.00 "HgN/A
11:20 pm45 °FPassing clouds.17 mph53%28.97 "HgN/A
10:50 pm45 °FClear.18 mph57%29.00 "Hg10 mi
10:20 pm46 °FClear.18 mph62%29.00 "Hg10 mi
9:50 pm46 °FClear.18 mph62%29.00 "Hg10 mi
9:20 pm46 °FClear.21 mph62%29.00 "Hg10 mi
8:50 pm48 °FMostly cloudy.23 mph62%28.97 "HgN/A
8:20 pm48 °FPartly cloudy.26 mph66%28.97 "HgN/A
7:50 pm48 °FPartly cloudy.29 mph66%28.97 "HgN/A
7:20 pm50 °FPartly cloudy.29 mph67%28.97 "HgN/A
6:50 pm46 °FPassing clouds.18 mph87%28.94 "HgN/A
6:20 pm46 °FPartly cloudy.21 mph87%28.94 "HgN/A
5:50 pm48 °FPartly cloudy.23 mph82%28.91 "HgN/A
5:20 pm46 °FPartly cloudy.25 mph87%28.91 "HgN/A
4:50 pm46 °FPartly cloudy.24 mph87%28.94 "HgN/A
4:20 pm46 °FCloudy.24 mph87%28.94 "HgN/A
3:50 pm48 °FMostly cloudy.22 mph82%28.94 "HgN/A
3:20 pm46 °FPartly sunny.24 mph87%28.97 "HgN/A
2:50 pm46 °FPartly sunny.25 mph87%28.97 "HgN/A
2:20 pm46 °FPartly sunny.25 mph87%29.03 "HgN/A
1:50 pm45 °FPartly sunny.24 mph93%29.03 "HgN/A
1:20 pm45 °FLight rain. Partly sunny.23 mph87%29.06 "HgN/A
12:50 pm45 °FLight rain. Partly sunny.25 mph87%29.09 "HgN/A
12:20 pm45 °FLight rain. Partly sunny.23 mph87%29.12 "HgN/A
11:50 am45 °FPartly sunny.22 mph87%29.12 "HgN/A
11:20 am43 °FPartly sunny.22 mph93%29.15 "HgN/A
10:50 am45 °FPartly sunny.20 mph87%29.18 "HgN/A
10:20 am43 °FMostly cloudy.18 mph93%29.18 "HgN/A
9:50 am43 °FMostly cloudy.18 mph93%29.21 "HgN/A
9:20 am43 °FPartly sunny.21 mph93%29.24 "HgN/A
8:50 am43 °FPartly sunny.21 mph87%29.24 "HgN/A
8:20 am43 °FOvercast.23 mph87%29.24 "HgN/A
7:50 am43 °FMostly cloudy.22 mph87%29.24 "HgN/A
7:20 am41 °FPassing clouds.22 mph93%29.27 "HgN/A
Weather by CustomWeather, © 2020

See weather overview

Advertising